EHI
0 0 0 0 0 0 0 0 0 0 0 0 0 0 1 0 0 1 0 7 24 32 29 47 76 87 77 58 36 22 19 19 24 36 44 46 48 48 40 27 17 8 2 1 0 0 0 0 0
0 0 0 0 0 0 0 0 0 0 0 0 0 0 1 1 2 1 1 12 30 34 26 38 67 78 68 47 24 11 9 9 11 17 23 27 28 27 20 13 8 4 1 0 0 0 0 0 0
0 0 0 0 0 0 0 0 0 0 0 0 0 0 0 2 4 2 3 14 27 27 21 35 57 64 53 33 12 3 1 1 1 2 5 7 7 6 3 1 1 1 0 0 0 0 0 0 0
0 0 0 0 0 0 0 0 0 0 0 1 2 1 0 7 16 14 8 12 17 17 18 33 49 49 38 23 9 3 1 0 0 0 0 0 0 0 0 0 0 0 0 0 0 0 0 0 0
0 0 0 0 0 0 0 0 0 0 1 2 5 5 3 18 38 31 12 8 12 15 16 25 36 36 28 19 10 5 3 1 1 1 1 0 0 0 0 0 0 0 0 0 0 0 0 0 0
0 0 0 0 0 0 0 0 0 1 2 4 7 6 5 23 42 31 11 6 11 16 13 14 21 24 22 18 11 7 4 3 4 5 4 4 4 4 3 1 0 0 0 0 0 0 0 0 0
0 0 0 0 0 0 0 0 0 1 2 4 6 5 4 15 26 21 10 7 8 12 11 7 8 11 14 13 9 6 5 5 6 7 8 10 11 9 5 2 1 0 0 0 0 0 0 0 0
0 0 0 0 0 0 0 0 0 0 1 1 2 1 2 7 18 27 25 16 8 6 7 5 3 3 6 6 5 4 5 6 7 8 10 13 11 7 4 2 1 0 0 0 0 0 0 0 1
0 0 0 0 0 0 0 0 0 0 0 0 0 0 1 6 23 45 50 35 17 6 3 5 4 3 4 4 3 3 3 4 4 5 8 9 5 2 1 1 0 0 0 0 0 0 0 0 1
0 0 0 0 0 0 0 0 0 0 0 1 1 1 2 8 25 51 67 59 35 13 3 4 5 6 7 5 3 1 1 1 1 2 3 3 1 0 0 0 0 0 0 0 0 0 0 0 1
0 0 0 0 0 0 0 0 0 0 0 1 2 1 2 6 19 42 65 70 52 24 7 4 7 9 8 5 3 1 0 0 0 0 0 0 0 0 0 0 0 0 0 0 0 0 0 0 0
0 0 0 0 0 0 0 0 0 0 0 1 2 2 2 3 10 28 52 67 60 36 15 9 10 11 9 6 3 1 0 0 0 0 0 0 0 0 0 1 1 1 0 0 0 0 0 0 0
0 0 0 0 0 0 0 0 0 0 0 1 2 2 1 2 5 15 37 58 64 49 28 17 16 14 11 7 4 1 0 0 0 0 0 0 0 0 0 1 1 1 0 0 0 0 0 0 0
0 0 0 0 0 0 0 0 0 0 0 1 2 3 3 3 3 8 24 49 65 62 45 32 26 21 16 12 7 3 2 1 0 0 0 0 0 1 1 0 0 0 0 0 0 0 0 0 0
0 0 0 0 0 0 0 0 0 0 0 1 3 7 8 5 3 5 15 37 59 67 61 53 45 40 34 26 17 12 10 8 5 4 4 3 3 4 3 1 1 0 0 0 0 0 0 0 0
0 0 0 0 0 0 0 0 0 0 0 1 5 10 10 8 6 7 13 27 47 62 69 70 67 64 62 53 41 31 26 23 21 18 15 12 10 9 7 4 2 1 0 0 0 0 0 0 0
0 0 0 0 0 0 0 0 0 0 0 2 6 10 11 10 10 11 15 23 36 55 70 78 80 82 83 79 70 58 49 44 41 38 33 27 22 16 10 6 3 1 1 0 0 0 0 0 0
0 0 0 0 0 0 0 0 0 0 1 3 5 9 12 13 15 16 18 22 33 50 67 78 85 89 92 93 88 78 68 58 53 50 45 37 29 21 13 7 4 2 1 0 0 0 0 0 0
0 0 0 0 0 0 0 0 0 0 2 3 6 10 15 18 22 24 24 27 34 46 59 73 85 92 96 96 92 82 70 58 48 43 37 30 24 18 12 8 4 2 1 0 0 0 0 0 0
0 0 0 0 0 0 0 0 0 1 4 9 15 20 24 28 31 31 31 32 36 43 53 67 81 91 94 92 84 73 60 46 34 26 18 14 13 11 9 5 2 0 0 0 0 0 0 0 0
0 0 0 0 0 0 0 0 1 4 12 23 33 39 43 44 42 38 36 36 38 43 52 63 76 86 89 84 75 63 51 39 26 14 7 5 6 5 4 2 0 0 0 0 0 0 0 0 0
0 0 0 0 0 0 0 0 1 6 18 35 50 58 61 61 58 51 47 45 44 46 53 63 73 81 82 76 68 59 49 36 21 9 3 3 3 2 1 0 0 0 0 0 0 0 0 0 0
0 0 0 0 0 0 0 0 1 5 17 37 56 65 68 70 69 64 60 57 52 51 55 64 73 75 72 67 61 52 41 27 13 4 1 1 1 0 0 0 0 0 0 0 0 0 0 0 0
0 0 0 0 0 0 0 0 1 3 13 33 54 63 64 65 65 65 63 61 58 56 58 63 67 66 60 55 48 38 27 16 7 1 0 0 0 0 0 0 0 0 0 0 0 0 0 0 0
0 0 0 0 0 0 0 2 4 6 13 28 42 48 47 47 51 52 52 50 49 49 51 54 55 52 47 40 31 22 15 8 3 1 0 0 0 0 0 0 0 0 0 0 0 0 0 0 0
0 0 0 0 0 0 0 3 7 9 14 21 23 23 23 25 29 31 31 29 27 28 31 34 34 31 27 21 14 10 6 3 1 0 0 0 0 0 0 0 0 0 0 0 0 0 0 0 0
0 0 0 0 0 0 0 2 6 9 10 10 7 5 6 8 9 11 11 10 9 9 12 14 14 11 9 6 4 2 1 0 0 0 0 0 0 0 0 0 0 0 0 0 0 0 0 0 0
0 0 0 0 0 0 0 0 3 6 7 4 1 0 1 1 1 2 2 2 2 2 2 3 3 3 2 1 0 0 0 0 0 0 0 0 0 0 0 0 0 0 0 0 0 0 0 0 0
0 0 0 0 0 0 0 0 2 5 6 3 0 0 0 0 0 0 0 0 0 0 0 1 1 1 1 0 0 0 0 0 0 0 0 0 0 0 0 0 0 0 0 0 0 0 0 0 0
0 0 0 0 0 0 0 0 1 4 4 2 0 0 0 0 0 0 0 0 0 0 0 0 0 0 0 0 0 0 0 0 0 0 0 0 0 0 0 0 0 0 0 0 0 0 0 0 0
Wind_Speed
10 7 1 3 5 4 3 4 3 4 3 2 5 8 8 5 4 4 5 15 18 15 11 15 18 18 18 18 17 16 16 15 15 15 15 15 15 15 15 15 14 13 13 12 11 11 10 10 10
5 5 4 5 5 2 6 4 3 7 5 6 7 7 7 6 7 10 8 16 19 16 11 13 17 18 18 18 17 16 16 16 15 15 15 15 15 14 14 14 13 12 11 11 10 9 8 8 9
5 2 3 4 2 4 6 5 4 6 4 6 6 5 6 8 9 7 11 19 17 14 10 13 18 17 17 18 17 16 16 16 15 15 15 15 14 14 13 13 12 11 10 9 9 8 7 6 7
3 5 4 2 6 8 8 13 10 6 2 2 7 6 5 5 7 12 19 19 17 13 11 13 17 17 17 17 17 17 17 16 16 15 15 14 14 13 13 13 12 11 9 8 7 6 5 5 5
4 4 2 3 8 9 10 12 11 7 3 3 9 8 5 5 17 22 19 19 17 12 9 11 16 17 17 17 17 17 17 16 15 15 15 14 13 13 12 12 12 10 9 8 6 5 4 3 4
3 4 2 6 11 11 10 8 9 7 4 6 9 8 4 10 19 19 18 16 17 15 10 10 16 18 17 17 17 16 16 16 15 15 15 14 13 12 12 12 11 10 9 8 6 5 4 3 2
4 4 6 8 9 12 15 9 7 5 2 5 8 9 5 10 15 15 15 15 15 15 12 9 10 13 16 16 16 16 16 15 15 15 15 15 14 13 13 12 11 10 9 8 7 6 5 3 1
6 4 5 6 7 12 13 8 6 4 3 4 6 11 9 10 11 14 13 13 13 13 12 10 8 8 8 10 16 17 16 16 16 16 16 16 15 14 14 11 11 11 11 10 8 7 5 3 1
3 3 6 7 7 11 10 9 9 4 1 2 3 8 15 16 13 15 13 11 11 12 10 10 10 8 8 8 12 14 16 16 15 14 16 13 7 7 8 11 12 12 11 10 9 7 5 3 2
6 5 10 8 8 10 12 11 10 4 2 2 5 7 17 17 16 17 18 17 15 14 12 10 11 11 9 9 7 6 7 8 8 6 8 6 5 5 8 10 13 13 11 10 9 8 5 3 1
6 8 8 11 13 11 12 13 8 3 5 10 16 17 18 17 16 17 18 18 18 17 15 13 12 12 10 7 7 4 4 5 6 7 7 6 5 4 5 4 6 6 7 4 4 4 2 2 1
4 7 7 10 12 10 11 10 8 5 9 11 18 22 20 18 17 17 18 17 16 17 17 15 14 12 11 9 8 7 5 5 5 7 8 6 4 4 4 4 4 3 2 2 2 2 3 1 0
6 10 12 12 12 12 11 10 8 6 4 9 12 16 19 18 16 13 15 15 16 17 17 17 16 15 12 10 8 8 7 7 7 6 7 7 5 5 5 4 4 4 3 3 2 2 1 2 3
7 7 9 9 12 9 9 10 4 5 4 8 13 14 14 14 14 11 11 14 16 17 17 17 17 17 13 11 9 8 8 7 7 6 8 8 5 5 5 4 4 3 3 2 2 1 1 3 4
5 6 10 9 8 8 4 8 7 6 5 8 12 15 15 13 12 11 13 15 17 17 16 16 17 16 15 13 12 9 8 8 7 7 7 8 6 6 5 4 4 3 3 3 2 2 3 3 5
3 2 5 10 5 7 3 10 12 7 4 7 10 14 16 15 15 11 10 10 12 13 14 16 15 15 15 12 10 7 7 7 6 6 6 7 6 6 5 4 3 3 3 3 3 3 4 3 4
2 1 5 9 6 4 4 9 11 7 4 7 10 12 14 12 12 12 12 9 9 10 12 14 12 14 13 10 7 6 5 6 5 5 5 5 6 6 5 4 3 4 4 3 4 3 3 3 3
4 3 5 6 6 3 6 12 12 9 7 8 9 10 13 14 14 12 11 11 8 8 9 10 10 11 11 9 7 5 5 4 3 4 4 5 5 6 5 4 5 4 4 4 4 5 4 3 2
4 5 8 9 7 4 10 15 14 10 7 7 8 10 11 11 10 10 9 9 7 5 7 9 11 12 10 8 7 6 5 4 4 3 4 5 6 6 6 5 5 4 4 4 5 4 5 3 2
6 7 9 11 8 6 9 15 12 7 5 5 8 11 13 11 8 9 7 7 10 10 9 8 9 11 11 9 6 5 6 5 4 4 6 6 6 6 6 6 5 5 5 5 4 4 3 2 2
9 8 9 9 10 7 4 8 7 1 4 7 6 7 9 11 11 9 7 7 7 9 10 10 9 10 10 10 8 8 6 5 4 5 5 5 6 6 6 7 6 5 5 4 4 4 4 3 2
8 9 7 6 4 5 2 4 7 2 7 9 9 9 9 8 7 6 6 6 6 7 8 9 9 9 9 11 11 12 8 6 5 5 5 6 6 7 7 7 6 5 4 5 4 3 3 4 2
9 8 4 3 2 3 4 1 8 2 6 7 9 11 10 9 8 7 5 3 3 5 7 8 8 8 8 9 10 10 7 7 8 8 9 7 6 7 7 7 6 6 5 5 6 5 5 3 3
7 1 4 4 4 2 4 1 5 3 3 9 9 11 11 10 9 9 8 7 6 5 6 8 9 7 7 9 8 9 11 12 12 10 9 7 5 6 7 7 7 6 6 6 6 6 7 5 5
3 5 4 4 3 5 5 2 1 7 8 12 12 11 11 10 10 10 11 10 9 9 8 8 10 9 8 9 9 9 11 11 12 11 9 8 6 5 6 7 7 6 6 6 6 6 6 5 6
4 9 7 4 2 4 3 2 4 10 13 14 13 12 11 11 10 11 11 11 11 11 10 10 11 11 10 10 10 10 10 8 8 9 9 8 6 6 7 8 7 7 6 7 6 5 6 6 6
4 4 8 6 1 1 2 4 6 9 12 13 12 11 11 10 10 11 11 12 11 12 12 12 12 12 12 11 12 12 11 11 11 11 9 8 7 8 9 8 8 7 7 7 6 6 5 6 6
6 6 6 5 3 2 3 2 4 9 11 11 10 10 10 9 10 10 11 11 12 12 12 13 14 14 13 12 11 11 12 11 11 11 10 9 9 8 9 8 8 8 7 7 7 6 6 7 6
3 3 4 4 5 5 2 2 4 8 11 12 11 10 9 9 10 10 10 10 11 12 12 13 13 14 13 12 12 13 12 11 11 10 10 10 9 8 8 8 8 9 9 8 8 7 7 7 6
6 3 4 4 2 2 3 2 7 10 11 12 11 10 9 9 9 10 10 11 11 12 12 13 13 13 13 12 13 13 12 11 11 11 10 10 9 8 9 9 10 10 10 9 9 8 7 6 5
Wind_Direction
330 321 335 68 48 40 271 243 212 246 229 184 125 111 105 92 135 149 128 139 135 140 146 146 142 139 136 133 130 126 123 119 114 111 109 107 106 105 104 103 102 100 98 94 89 84 78 74 74
326 331 23 57 77 338 275 234 191 233 209 133 110 103 91 78 97 109 121 140 137 139 142 145 143 141 140 137 135 132 129 125 120 117 114 112 111 110 110 109 108 105 103 99 94 88 81 74 72
316 352 56 64 143 206 257 273 276 273 212 147 114 80 86 116 116 122 140 139 135 137 139 146 144 143 142 141 140 137 135 132 128 125 122 120 119 118 117 117 115 113 110 106 102 97 90 81 75
22 25 40 73 249 243 244 276 288 295 291 107 108 75 63 111 122 133 139 140 135 137 139 144 143 144 145 145 145 143 141 138 136 133 130 127 126 126 126 126 125 124 123 119 116 112 105 95 83
62 64 23 291 264 264 268 276 286 280 228 127 105 94 55 43 116 133 142 143 139 136 138 143 143 145 147 148 148 147 146 143 141 139 136 135 134 134 135 136 137 138 138 136 134 134 131 118 95
56 80 152 252 267 277 283 288 300 288 158 130 108 104 86 119 128 144 147 147 142 142 141 144 146 148 148 150 150 150 149 147 145 144 143 143 143 143 145 146 148 149 150 152 157 164 170 166 119
135 142 207 234 265 281 280 292 296 298 186 157 129 105 117 141 143 149 149 144 142 144 144 145 149 150 150 150 150 150 150 149 149 149 150 150 151 152 155 156 158 160 164 170 180 190 199 199 155
155 144 223 233 251 269 276 296 295 295 231 157 128 131 153 166 148 143 143 141 143 148 150 150 148 147 147 150 153 153 153 154 155 156 157 158 159 162 164 165 169 173 178 185 194 205 216 226 220
133 127 224 229 233 260 287 307 307 321 178 154 145 152 153 151 137 138 142 140 148 154 157 155 154 152 150 152 159 158 158 160 161 164 165 162 163 166 169 177 180 184 190 197 205 215 227 245 258
147 188 229 235 241 265 287 289 295 334 319 119 110 129 140 145 143 151 156 159 161 164 169 165 163 161 159 163 154 158 163 164 163 166 167 164 167 177 180 190 190 193 199 207 217 228 241 253 234
179 198 229 247 253 261 278 283 283 191 226 179 159 158 153 153 155 162 168 169 169 168 171 173 171 168 169 162 159 166 165 166 169 173 172 172 174 186 190 183 197 199 204 214 233 244 248 240 226
231 246 235 249 256 260 263 274 282 222 216 192 166 160 157 161 165 169 172 174 169 170 175 175 175 174 176 167 171 174 174 177 182 185 182 180 183 189 185 181 186 187 192 204 232 243 257 267 187
238 258 262 258 259 255 262 267 268 266 193 163 164 160 161 165 167 168 168 170 171 175 177 178 178 178 179 171 178 180 183 185 189 188 191 188 187 184 177 180 181 185 190 200 222 234 237 92 92
234 249 267 267 261 255 255 268 278 257 155 154 161 165 165 169 169 164 163 171 177 179 180 180 181 181 179 178 182 183 186 185 189 194 195 191 185 175 171 175 179 184 186 186 191 196 129 101 97
240 271 292 281 264 256 257 288 261 241 172 167 172 170 171 173 173 177 179 180 180 181 181 182 183 181 181 181 185 182 184 182 187 191 191 187 180 172 166 164 169 175 162 142 125 104 96 99 96
345 326 291 286 266 260 217 262 267 260 192 195 188 182 177 180 176 174 181 183 180 178 179 182 185 182 182 180 180 176 179 179 184 180 180 181 173 164 154 149 155 144 122 116 115 107 96 91 102
1 254 266 286 271 251 217 250 262 255 236 219 203 190 181 177 171 169 171 174 186 179 175 181 181 177 176 168 161 155 158 165 167 163 164 167 159 151 138 136 133 125 111 107 112 92 99 101 97
247 253 271 272 290 286 252 253 259 255 243 238 201 188 171 170 178 171 166 171 183 178 173 176 172 168 161 151 136 125 117 123 129 139 148 145 134 127 121 118 118 116 107 96 93 93 78 85 93
247 276 285 279 282 278 254 254 254 246 247 230 199 180 166 163 166 155 161 165 155 162 177 178 172 167 162 157 149 139 130 117 103 96 103 109 111 113 112 110 104 102 104 110 112 104 90 66 54
264 278 284 292 292 284 261 255 248 232 222 205 179 157 150 148 146 150 153 157 159 173 182 184 179 172 170 161 147 129 121 106 95 89 81 88 99 104 110 112 105 98 101 97 95 101 100 64 36
258 244 256 272 304 316 280 276 259 252 84 70 76 104 116 134 145 153 158 159 166 178 175 180 182 174 164 145 128 116 102 97 98 96 88 80 91 94 98 101 102 98 100 104 96 99 111 115 47
254 244 242 268 308 302 11 276 281 156 81 74 63 69 80 82 96 120 140 157 173 178 173 173 177 165 160 152 150 150 154 146 134 120 106 90 84 88 92 94 96 97 99 102 95 90 103 116 112
231 245 243 255 262 316 345 177 290 33 88 86 75 70 65 69 77 81 86 118 136 149 157 158 150 153 156 151 151 147 137 123 121 116 110 98 85 83 90 94 96 95 94 92 87 83 77 81 99
226 287 4 41 72 330 264 141 299 351 125 116 89 73 63 61 62 62 56 56 58 80 113 123 121 124 134 131 130 136 135 133 132 126 120 109 97 88 87 91 90 89 89 88 88 87 83 80 79
137 92 35 5 27 250 253 141 301 21 68 102 96 77 61 52 49 52 54 55 56 64 81 101 111 107 109 115 118 122 126 130 131 129 123 117 108 101 95 94 91 88 90 90 88 85 79 77 80
170 135 152 180 210 285 335 109 67 70 76 82 80 75 66 54 49 50 50 53 55 59 69 84 94 97 100 104 106 107 109 110 111 114 117 115 112 108 103 95 92 91 88 85 80 78 77 75 76
147 168 169 140 214 311 302 116 117 105 93 88 83 77 69 60 54 53 52 54 56 60 63 74 83 84 85 91 96 97 100 104 108 107 106 106 107 107 97 92 87 81 78 77 78 75 71 72 68
158 153 99 117 153 240 287 165 183 153 124 106 94 84 75 68 61 57 56 57 58 61 65 69 74 79 79 83 89 94 95 99 104 105 105 103 99 98 96 89 83 77 72 72 73 70 68 70 64
49 64 101 134 158 161 235 306 338 147 129 116 104 94 83 73 68 65 64 62 63 64 66 70 74 78 80 82 87 89 91 94 96 97 98 97 95 93 91 88 81 75 69 67 71 70 69 71 62
85 83 109 132 248 167 149 24 30 99 107 109 103 94 86 82 78 74 72 70 69 69 69 71 73 77 79 83 86 86 87 88 89 88 88 89 88 86 85 83 80 76 70 64 63 62 57 61 59